THORAD AGENA D DEB, 4675

Orbit data source: Space-Track

THORAD AGENA D DEB, 4675 is space debris in SSO originally from a launch on Wed, 08 Apr 1970 UTC launched from the Air Force Western Test Range (AFWTR). Debris objects in space refer to the collection of defunct objects orbiting the Earth. Examples of debris include non-operational satellites, rocket bodies, and fragments generated from explosions, collisions, or faulty payload assembly.

Loading next visibility...
Identifier
4675, 1970-025AY
Orbit
SSO
Country
Flag of USUS
Related business
Manufacturer
Unknown
Mission
Spacecraft
Bus & Motor
Unknown
Mass
Unknown
Launch date (UTC)
1970-04-08 (56 years ago)
Launch vehicle
Unknown
Launch site
Air Force Western Test Range (AFWTR)
Object type
Payload
Rocket body
Debris
Shape & HBR
Unknown shape, 1.7 m
Radar Cross Section
Large (>1 m²)

Expand to show TLE details & history
Last TLE update: 17 hours ago

TLE from 17 hours ago
0 THORAD AGENA D DEB
1 04675U 70025AY  25349.34758861  .00000038  00000-0  13079-3 0  9995
2 04675 100.1548 317.8040 0001443 110.3432  52.3491 13.51527733744929
Epoch: 2025-12-15T08:20Z
TLE epoch observation values (Epoch: 2025-12-15T08:20:31.655Z)
Latitude
17.00366°
Longitude
-68.45167°
Altitude
1,068.149 km
Speed
7.32 km/s
True Right ascension
09h 23m 42s
True Declination
16° 54' 42"
Sunlit
Object was in full shadow at epoch
Visualization orbit readout
Latitude
Unknown
Longitude
Unknown
Altitude
Unknown
Speed
Unknown
Apparent Right ascension
Unknown
Apparent Declination
Unknown
Sunlit
N/A
Visualization observer readout
Local Sidereal Time
23:41:08
Azimuth
Unknown
Elevation
Unknown
Doppler factor
Unknown
Orbital elements
Apogee altitude
1,065.04 km
Perigee altitude
1,062.892 km
Semi-major axis
7,442.103 km
Eccentricity
0.00014
Inclination
100.1548°
RAAN
317.804°
Arg. of periapsis
110.3432°
True anomaly
52.36219°
Mean anomaly
52.3491°
Eccentric anomaly
52.35565°
Mean motion
3.38065 °/min
Orbital period
106.49 mins
BSTAR
0.00013079
Loading maneuver chart data...
Computing Atmospheric mass density...

Documentation

Showing up to 5 results
|